Content
SEND FEEDBACK

Daily
Averages
Monthly
Summary
United States of America

BROOMFIELD, COLORADO


Home > North America > United States > Colorado
Elevation: 1629 meters     Latitude: 39 54N     Longitude: 105 01W

WEATHER
 
SELECT A DAY
Number of Records: 148,949;   Date Range: 1/1/95 - 7/20/14
 
SHARE

PRINT THIS DATA

[ ← Previous Day ]
WEATHER ALMANAC - 13 FEBRUARY, 2013
[ Next Day → ]
[ °F ]   °C
Weather ElementAverageHighLow
Temperature1.6 °C8 °C (12:47 pm)-3 °C (3:36 am)
Dewpoint-14.7 °C-13 °C (4:56 am)-17 °C (9:55 am)
Humidity30.5 %43 % (4:16 am)17 % (9:55 am)
Barometer1013.9 hPa1015.6 hPa (12:34 am)1011.5 hPa (6:50 am)
Wind Speed18.3 km/h44.4 km/h (4:53 pm)
Wind Gust62.9 km/h (10:53 am)
Weather ElementAverage
Visibility49.9 km
Wind DirectionSSE (173 °)

Weather ElementTotal
Precipitation---
Heating Degree Days15.8 (Base 18.3)
Averaged from 30 records on 13 February, 2013
WEATHER CONDITIONS BREAKOUT
WIND DIRECTION BREAKOUT
WEATHER BY HOUR - 13 FEBRUARY, 2013
[ °F ]   °C
Local TimeTemperatureDewpointHumidityBarometerVisibilityWind DirectionWind SpeedGust SpeedPrecipitationEventsConditions
12:34 AM1 °C-16 °C28 %1015.6 hPa16.1 kmNW (320°)20.4 km/hOvercast
12:56 AM0 °C-16 °C30 %1015.6 hPa16.1 kmNW (320°)16.7 km/hOvercast
1:16 AM0 °C-15 °C32 %1015.2 hPa16.1 kmWNW (300°)25.9 km/hScattered Clouds
1:36 AM-2 °C-15 °C37 %1015.2 hPa16.1 kmSW (230°)11.1 km/hClear
1:56 AM-2 °C-15 °C37 %1014.9 hPa16.1 kmCalmClear
2:16 AM-2 °C-15 °C37 %1014.6 hPa16.1 kmCalmClear
2:36 AM-2 °C-15 °C37 %1013.9 hPa16.1 kmCalmClear
2:56 AM-2 °C-15 °C37 %1013.5 hPa16.1 kmCalmClear
3:15 AM-2 °C-15 °C37 %1013.2 hPa16.1 kmCalmClear
3:36 AM-3 °C-15 °C40 %1012.9 hPa16.1 kmCalmClear
3:56 AM-2 °C-15 °C37 %1012.9 hPa16.1 kmCalmClear
4:16 AM-3 °C-14 °C43 %1013.2 hPa16.1 kmSE (140°)5.6 km/hClear
4:36 AM-3 °C-14 °C43 %1012.9 hPa16.1 kmSSE (160°)5.6 km/hClear
4:56 AM-2 °C-13 °C43 %1012.9 hPa16.1 kmCalmClear
6:50 AM1 °C-16 °C28 %1011.5 hPa48.3 kmCalmScattered Clouds
7:48 AM0 °C-14 °C35 %1012.5 hPa112.7 kmCalmMostly Cloudy
8:48 AM0 °C-13 °C38 %1012.5 hPa112.7 kmSE (130°)5.6 km/hMostly Cloudy
9:47 AM7 °C-16 °C18 %1012.9 hPa112.7 kmWest (270°)33.3 km/h40.7 km/hMostly Cloudy
9:55 AM7 °C-17 °C17 %1012.9 hPa112.7 kmWest (270°)42.6 km/h50.1 km/hMostly Cloudy
10:53 AM5 °C-15 °C23 %1013.9 hPa112.7 kmWest (270°)42.6 km/h62.9 km/hMostly Cloudy
11:47 AM5 °C-15 °C23 %1014.2 hPa112.7 kmWest (280°)35.2 km/h40.7 km/hMostly Cloudy
12:47 PM8 °C-15 °C18 %1013.9 hPa112.7 kmWest (280°)18.5 km/h27.8 km/hMostly Cloudy
1:52 PM8 °C-16 °C17 %1013.2 hPa80.5 kmWest (260°)40.7 km/h51.8 km/hScattered Clouds
3:53 PM5 °C-13 °C26 %1013.2 hPa80.5 kmWest (260°)25.9 km/h48.1 km/hScattered Clouds
4:53 PM6 °C-13 °C25 %1012.9 hPa64.4 kmWest (280°)44.4 km/h61.2 km/hScattered Clouds
5:55 PM5 °C-14 °C24 %1013.2 hPa48.3 kmWNW (290°)37 km/h62.9 km/hScattered Clouds
6:50 PM4 °C-14 °C26 %1014.2 hPa48.3 kmWest (280°)37 km/h44.4 km/hScattered Clouds
7:53 PM4 °C-14 °C26 %1014.6 hPa48.3 kmWest (280°)37 km/h48.1 km/hScattered Clouds
8:47 PM4 °C-14 °C26 %1014.6 hPa32.2 kmWest (280°)33.3 km/h48.1 km/hScattered Clouds
9:49 PM4 °C-14 °C26 %1014.9 hPa32.2 kmWNW (290°)33.3 km/hScattered Clouds
Hourly data recorded from KBJC, located 0 kilometers away from Broomfield, Colorado







STORIES FROM OUR PARTNERS